LELCLEAL

Guest
Details From LELC - Murcia San Javier
To LEAL - Alicante
Flight Number -
Tags Routegen Generated
Created
Modified
Stats Distance 44 nm / 82 km
Max Altitude 100 ft / 30 m
Waypoints 5
Social Downloads 10
Likes 0
Share

Download

Looking for another format? Having issues loading an existing format? Contact us
Advertisement - Login to hide

Notes

Departing runway 4 LELC. Arriving runway 10 LEAL.

Route

LELC +37.83_+000.74 +38.04_+000.55 +38.25_+000.36 LEAL

ID Type Via Altitude (ft/m) Position (lat/lon) Dist (leg/tot) Name
O LELC APT - 100 / 30 37.78219 / -0.80283 - / 0 nm
+37.83_+000.74 DME - 100 / 30 37.83277 / -0.73732 4 / 4 nm
+38.04_+000.55 DME - 100 / 30 38.04354 / -0.54859 15 / 19 nm
+38.25_+000.36 DME - 100 / 30 38.25432 / -0.35986 15 / 35 nm
O LEAL APT - 0 / 0 38.27982 / -0.54132 8 / 44 nm

Altitude Profile

Advertisement - Login to hide

LELC

Details ICAO LELC (MJV)
Name Murcia San Javier
Region Spain
Timezone Europe/Madrid (UTC+1.0)
Stats Elevation 29 ft / 9 m (AMSL)
Location 37.775000° -0.812500°
Runways 2
Magnetic Variation 0.553° E

METAR

LELC 301230Z 12004KT 080V200 CAVOK 17/08 Q1026 NOSIG

Decode

TAF

TAF LELC 301100Z 3012/0112 11006KT CAVOK TX21/3014Z TN06/0106Z

Decode

Departure Runways

ID Width Length Bearing (true/mag) Surface Threshold Overrun Markings Lighting
05L 148 ft / 45 m 5,173 ft / 1,577 m 45.63° / 45.08° ASPHALT 0 ft / 0 m 646 ft / 197 m NONE
05R 148 ft / 45 m 7,611 ft / 2,320 m 45.64° / 45.09° ASPHALT 0 ft / 0 m 600 ft / 183 m PREC-APP EDGE THRESHOLD REIL-OMNI
23L 148 ft / 45 m 7,611 ft / 2,320 m 225.66° / 225.10° ASPHALT 0 ft / 0 m 617 ft / 188 m PREC-APP EDGE THRESHOLD REIL-OMNI
23R 148 ft / 45 m 5,173 ft / 1,577 m 225.64° / 225.09° ASPHALT 0 ft / 0 m 748 ft / 228 m NONE

LEAL

Details ICAO LEAL (ALC)
Name Alicante-Elche "El Altet"
Region Spain
Timezone Europe/Madrid (UTC+1.0)
Stats Elevation 142 ft / 43 m (AMSL)
Location 38.282200° -0.558114°
Runways 1
Magnetic Variation 0.620° E

METAR

LEAL 301230Z 12006KT 070V160 9999 FEW040 17/09 Q1026 NOSIG

Decode

TAF

TAF TAF LEAL 301100Z 3012/0112 09007KT 9999 FEW030 TX17/3012Z TN06/0106Z BECMG 3018/3021 32005KT BECMG 0107/0109 26008KT

Decode

Destination Runways

ID Width Length Bearing (true/mag) Surface Threshold Overrun Markings Lighting
10 148 ft / 45 m 9,828 ft / 2,996 m 100.08° / 99.46° ASPHALT 0 ft / 0 m 0 ft / 0 m PREC-APP CENTERLINE EDGE THRESHOLD CALVERT-ILS REIL-OMNI
28 148 ft / 45 m 9,828 ft / 2,996 m 280.10° / 279.48° ASPHALT 0 ft / 0 m 0 ft / 0 m PREC-APP CENTERLINE EDGE THRESHOLD CALVERT-ILS REIL-OMNI

Approach Navaids

Runway Type Ident Frequency Range Bearing (true/mag) Slope Elevation
10 DME IAT 110.30 MHz 18 nm / 33 km - - 129 ft / 39 m (AMSL)
10 LOC-ILS IAT 110.30 MHz 18 nm / 33 km 100.09° / 99.47 ° - 29 ft / 9 m (AMSL)
10 GS IAT 110.30 MHz 10 nm / 19 km 100.19° / 99.57 ° 3.00° 129 ft / 39 m (AMSL)

Popular Alternatives